This demonstration page uses our WeatherBlox Daily Observations layout. Learn more.

36.17497, -115.13722

Hourly Observations for June 11, 2015

Temp ( °F °C ) Dew Point ( °F °C ) Humidity (%) Winds ( mph kmh ) Pressure ( in mb ) Visibility ( mi km ) Precip ( " mm )
12:53 am 00:53 Clear 79 26.1 51 10.6 38 38 ENE 8 13 29.74 1007 10 16.0934 0 0
1:53 am 01:53 Clear 77 25 51 10.6 40 40 ESE 10 17 29.74 1007 10 16.0934 0 0
2:53 am 02:53 Clear 76 24.4 52 11.1 43 43 E 7 11 29.75 1007 10 16.0934 0 0
3:53 am 03:53 Clear 75 23.9 52 11.1 45 45 S 3 6 29.76 1008 10 16.0934 0 0
4:53 am 04:53 Clear 75 23.9 52 11.1 45 45 WSW 5 7 29.77 1008 10 16.0934 0 0
5:53 am 05:53 Sunny 74 23.3 52 11.1 46 46 Calm 29.78 1009 10 16.0934 0 0
6:53 am 06:53 Sunny 76 24.4 50 10 40 40 Calm 29.8 1009 10 16.0934 0 0
7:53 am 07:53 Sunny 77 25 51 10.6 40 40 SSE 7 11 29.82 1010 10 16.0934 0 0
8:53 am 08:53 Sunny 80 26.7 51 10.6 37 37 NE 5 7 29.83 1010 10 16.0934 0 0
9:53 am 09:53 Sunny 84 28.9 48 8.9 29 29 ENE 7 11 29.82 1010 10 16.0934 0 0
10:53 am 10:53 Sunny 84 28.9 47 8.3 27 27 SSE 3 6 29.82 1010 10 16.0934 0 0
11:53 am 11:53 Sunny 88 31.1 47 8.3 24 24 VRB 7 11 29.8 1009 10 16.0934 0 0
12:53 pm 12:53 Sunny 88 31.1 45 7.2 22 22 Calm 29.78 1009 10 16.0934 0 0
1:53 pm 13:53 Sunny 91 32.8 43 6.1 19 19 VRB 7 11 29.77 1008 10 16.0934 0 0
2:53 pm 14:53 Mostly Sunny 91 32.8 42 5.6 18 18 VRB 3 6 29.74 1007 10 16.0934 0 0
3:53 pm 15:53 Sunny 92 33.3 43 6.1 18 18 Calm 29.73 1007 10 16.0934 0 0
4:53 pm 16:53 Sunny 96 35.6 42 5.6 15 15 VRB 7 11 29.72 1006 10 16.0934 0 0
5:53 pm 17:53 Sunny 93 33.9 42 5.6 17 17 ESE 7 11 29.7 1006 10 16.0934 0 0
6:53 pm 18:53 Sunny 92 33.3 42 5.6 18 18 E 3 6 29.71 1006 10 16.0934 0 0
7:53 pm 19:53 Sunny 91 32.8 41 5 17 17 ESE 6 9 29.72 1007 10 16.0934 0 0
8:53 pm 20:53 Mostly Clear 89 31.7 41 5 19 19 ESE 3 6 29.73 1007 10 16.0934 0 0
9:53 pm 21:53 Partly Cloudy 89 31.7 43 6.1 20 20 E 12 19 29.75 1008 10 16.0934 0 0
10:53 pm 22:53 Mostly Clear 87 30.6 48 8.9 26 26 N 13 20 29.77 1008 10 16.0934 0 0
11:53 pm 23:53 Clear 85 29.4 49 9.4 29 29 NNW 14 22 29.76 1008 10 16.0934 0 0

Powered by AerisWeather